NOAA 16 DEB, 41080

Orbit data source: Space-Track

NOAA 16 DEB, 41080 is space debris in SSO originally from a launch on Thu, 21 Sep 2000 UTC launched from the Air Force Western Test Range (AFWTR). Debris objects in space refer to the collection of defunct objects orbiting the Earth. Examples of debris include non-operational satellites, rocket bodies, and fragments generated from explosions, collisions, or faulty payload assembly.

Loading next visibility...
Identifier
41080, 2000-055AP
Orbit
SSO
Country
Flag of USUS
Related business
Manufacturer
Unknown
Mission
Spacecraft
Bus & Motor
Unknown
Mass
Unknown
Launch date (UTC)
2000-09-21 (26 years ago)
Launch vehicle
Unknown
Launch site
Air Force Western Test Range (AFWTR)
Object type
Payload
Rocket body
Debris
Shape & HBR
Unknown shape, 0.1 m
Radar Cross Section
Small (<0.1 m²)

Expand to show TLE details & history
Last TLE update: 12 hours ago

TLE from 12 hours ago
0 NOAA 16 DEB
1 41080U 00055AP  26128.08400040  .00000089  00000-0  57428-4 0  9995
2 41080  98.5234 172.1437 0006370   3.8036 356.3191 14.23723943539189
Epoch: 2026-05-08T02:00Z
TLE epoch observation values (Epoch: 2026-05-08T02:00:57.634Z)
Latitude
0.00003°
Longitude
-84.01732°
Altitude
811.14 km
Speed
7.45 km/s
True Right ascension
11h 28m 34s
True Declination
0° 00' 00"
Sunlit
Object was in full shadow at epoch
Visualization orbit readout
Latitude
Unknown
Longitude
Unknown
Altitude
Unknown
Speed
Unknown
Apparent Right ascension
Unknown
Apparent Declination
Unknown
Sunlit
N/A
Visualization observer readout
Local Sidereal Time
22:26:53
Azimuth
Unknown
Elevation
Unknown
Doppler factor
Unknown
Orbital elements
Apogee altitude
814.51 km
Perigee altitude
805.352 km
Semi-major axis
7,188.068 km
Eccentricity
0.00064
Inclination
98.5234°
RAAN
172.1437°
Arg. of periapsis
3.8036°
True anomaly
356.31441°
Mean anomaly
356.3191°
Eccentric anomaly
356.31676°
Mean motion
3.56143 °/min
Orbital period
101.08 mins
BSTAR
0.000057428
Loading maneuver chart data...
Computing Atmospheric mass density...
Loading historical data...
Loading historical data...
Loading historical data...
Loading historical data...
Loading historical data...
Loading historical data...
Loading historical data...

Documentation

Showing up to 5 results
|